FW1341 Weather Reports


Display with metric or nautical units.
time (UTC)temp
F
wind
direction
speed
MPH
gust
MPH
rain 1hr
in
rain 24hr
in
rain mn
in
humidity
%
barometer
mb
20260505181208 83 219 9.0 21.0 0.00 0.00 0.00 34 1007.5
20260505180202 83 219 8.0 19.0 0.00 0.00 0.00 34 1007.7
20260505175202 83 231 10.0 20.0 0.00 0.00 0.00 34 1007.8
20260505173659 83 243 7.0 16.0 0.00 0.00 0.00 35 1007.8
20260505173159 83 194 8.0 18.0 0.00 0.00 0.00 36 1007.8
20260505172700 82 142 8.0 18.0 0.00 0.00 0.00 37 1007.9
20260505172200 83 181 6.0 16.0 0.00 0.00 0.00 37 1007.9
20260505171654 83 188 6.0 18.0 0.00 0.00 0.00 38 1008.0
20260505171154 82 235 7.0 18.0 0.00 0.00 0.00 37 1008.1
20260505170653 82 262 7.0 20.0 0.00 0.00 0.00 38 1008.1
20260505165651 81 257 6.0 15.0 0.00 0.00 0.00 38 1008.2
20260505165150 82 224 4.0 14.0 0.00 0.00 0.00 37 1008.2
20260505164649 82 218 6.0 14.0 0.00 0.00 0.00 39 1008.3
20260505164150 81 180 6.0 16.0 0.00 0.00 0.00 39 1008.4
20260505163144 81 200 5.0 13.0 0.00 0.00 0.00 40 1008.6
20260505162642 81 172 5.0 11.0 0.00 0.00 0.00 40 1008.7
20260505162142 80 198 6.0 11.0 0.00 0.00 0.00 41 1008.9
20260505161644 80 221 6.0 11.0 0.00 0.00 0.00 41 1008.9
20260505160627 79 242 7.0 14.0 0.00 0.00 0.00 42 1008.9
20260505160126 79 231 5.0 13.0 0.00 0.00 0.00 42 1009.0
20260505153117 77 211 5.0 12.0 0.00 0.00 0.00 45 1009.2
20260505152617 77 262 5.0 11.0 0.00 0.00 0.00 45 1009.2
20260505152117 77 204 5.0 12.0 0.00 0.00 0.00 45 1009.3
20260505151617 77 224 4.0 12.0 0.00 0.00 0.00 45 1009.2
20260505151118 76 174 4.0 12.0 0.00 0.00 0.00 46 1009.2
20260505150615 76 199 6.0 12.0 0.00 0.00 0.00 45 1009.2
20260505124539 68 190 3.0 11.0 0.00 0.00 0.00 55 1009.6
20260505124039 68 205 3.0 8.0 0.00 0.00 0.00 55 1009.6
20260505123539 68 194 3.0 9.0 0.00 0.00 0.00 55 1009.6
20260505123039 67 247 4.0 12.0 0.00 0.00 0.00 56 1009.6
20260505122542 67 219 5.0 12.0 0.00 0.00 0.00 56 1009.6
20260505122041 67 195 4.0 11.0 0.00 0.00 0.00 56 1009.5
20260505121540 66 273 4.0 11.0 0.00 0.00 0.00 57 1009.4
20260505120536 66 283 3.0 10.0 0.00 0.00 0.00 57 1009.3
20260505115036 65 204 4.0 12.0 0.00 0.00 0.00 58 1009.3
20260505114535 65 238 3.0 11.0 0.00 0.00 0.00 58 1009.2
20260505113536 65 198 3.0 8.0 0.00 0.00 0.00 59 1009.1
20260505113032 65 156 3.0 8.0 0.00 0.00 0.00 59 1009.1
20260505112530 65 311 3.0 11.0 0.00 0.00 0.00 60 1009.0
20260505112027 65 266 3.0 11.0 0.00 0.00 0.00 60 1009.1
20260505111529 64 149 3.0 9.0 0.00 0.00 0.00 60 1009.0
20260505111028 64 214 4.0 11.0 0.00 0.00 0.00 61 1008.9
20260505110528 64 246 3.0 11.0 0.00 0.00 0.00 61 1008.9
20260505102017 63 323 3.0 8.0 0.00 0.00 0.00 62 1008.6
20260505100016 63 229 2.0 7.0 0.00 0.00 0.00 64 1008.5
20260505095510 63 212 3.0 8.0 0.00 0.00 0.00 63 1008.5
20260505095011 63 180 3.0 11.0 0.00 0.00 0.00 63 1008.4
20260505094512 63 217 3.0 11.0 0.00 0.00 0.00 62 1008.4
20260505094010 63 186 2.0 8.0 0.00 0.00 0.00 62 1008.4
20260505093010 63 273 2.0 8.0 0.00 0.00 0.00 62 1008.3
20260505092504 63 221 3.0 8.0 0.00 0.00 0.00 61 1008.2
20260505092003 63 188 2.0 11.0 0.00 0.00 0.00 62 1008.2
20260505091504 63 188 2.0 11.0 0.00 0.00 0.00 62 1008.1
20260505091005 63 217 1.0 8.0 0.00 0.00 0.00 62 1008.1
20260505090005 63 210 1.0 8.0 0.00 0.00 0.00 62 1008.2
20260505084957 63 160 2.0 6.0 0.00 0.00 0.00 61 1008.2
20260505084000 63 214 2.0 8.0 0.00 0.00 0.00 61 1008.2
20260505082956 64 174 2.0 10.0 0.00 0.00 0.00 60 1008.2
20260505082452 64 153 3.0 9.0 0.00 0.00 0.00 59 1008.3
20260505081953 64 239 3.0 9.0 0.00 0.00 0.00 59 1008.2
20260505080950 64 165 4.0 11.0 0.00 0.00 0.00 59 1008.1
20260505080450 64 193 3.0 11.0 0.00 0.00 0.00 59 1008.1
20260505075949 64 205 3.0 9.0 0.00 0.00 0.00 59 1008.0
20260505075444 64 170 3.0 9.0 0.00 0.00 0.00 59 1008.1
20260505074943 64 194 3.0 11.0 0.00 0.00 0.00 60 1008.1
20260505074444 64 240 2.0 11.0 0.00 0.00 0.00 60 1008.1
20260505073944 64 219 1.0 6.0 0.00 0.00 0.00 59 1008.0
20260505073446 64 203 1.0 4.0 0.00 0.00 0.00 59 1008.0
20260505072946 64 169 1.0 6.0 0.00 0.00 0.00 58 1008.0
20260505072437 64 211 2.0 7.0 0.00 0.00 0.00 58 1007.9
20260505071937 64 184 2.0 7.0 0.00 0.00 0.00 58 1007.9
20260505071438 64 221 2.0 8.0 0.00 0.00 0.00 59 1007.9
20260505070939 64 179 1.0 8.0 0.00 0.00 0.00 59 1007.9
20260505070438 64 194 1.0 7.0 0.00 0.00 0.00 59 1007.8
20260505065939 64 177 0.0 7.0 0.00 0.00 0.00 59 1007.8
20260505065435 64 212 0.0 3.0 0.00 0.00 0.00 59 1007.8
20260505064935 64 159 0.0 3.0 0.00 0.00 0.00 58 1007.9
20260505063935 64 211 1.0 6.0 0.00 0.00 0.00 57 1007.7
20260505063435 64 201 1.0 6.0 0.00 0.00 0.00 58 1007.7
20260505062934 64 194 0.0 2.0 0.00 0.00 0.00 58 1007.8
20260505062435 63 232 0.0 2.0 0.00 0.00 0.00 58 1007.8
20260505061929 64 199 0.0 0.0 0.00 0.00 0.00 58 1007.7
20260505061429 64 194 0.0 1.0 0.00 0.00 0.00 58 1007.7
20260505060929 64 197 0.0 1.0 0.00 0.00 0.00 58 1007.8
20260505060431 64 203 0.0 1.0 0.00 0.00 0.00 58 1007.7
20260505055928 64 203 0.0 1.0 0.00 0.00 0.00 57 1007.7
20260505054420 64 198 0.0 1.0 0.00 0.00 0.00 57 1007.8
20260505052918 65 188 0.0 3.0 0.00 0.00 0.00 56 1007.9
20260505051914 65 205 1.0 3.0 0.00 0.00 0.00 56 1007.9
20260505051414 65 191 0.0 3.0 0.00 0.00 0.00 56 1007.8
20260505050912 65 162 0.0 1.0 0.00 0.00 0.00 56 1007.9
20260505050410 66 143 1.0 4.0 0.00 0.00 0.00 56 1007.9
20260505041354 67 228 1.0 5.0 0.00 0.00 0.00 53 1007.9
20260505040855 67 203 0.0 5.0 0.00 0.00 0.00 53 1007.9
20260505040354 67 207 0.0 1.0 0.00 0.00 0.00 52 1007.9
20260505035854 67 208 0.0 1.0 0.00 0.00 0.00 52 1007.8
20260505035347 67 210 0.0 2.0 0.00 0.00 0.00 52 1007.8
20260505033849 68 212 0.0 3.0 0.00 0.00 0.00 51 1007.7
20260505033348 68 201 0.0 5.0 0.00 0.00 0.00 51 1007.7
20260505032847 68 190 1.0 6.0 0.00 0.00 0.00 50 1007.8
20260505032346 69 222 1.0 6.0 0.00 0.00 0.00 50 1007.7
20260505031841 69 211 1.0 5.0 0.00 0.00 0.00 49 1007.7
20260505030844 69 297 1.0 6.0 0.00 0.00 0.00 49 1007.7
20260505030341 69 217 2.0 6.0 0.00 0.00 0.00 48 1007.7
20260505025840 69 204 2.0 6.0 0.00 0.00 0.00 48 1007.7
20260505025335 69 186 3.0 7.0 0.00 0.00 0.00 48 1007.6
20260505024335 70 207 2.0 7.0 0.00 0.00 0.00 48 1007.7
20260505023835 70 187 2.0 7.0 0.00 0.00 0.00 48 1007.7
20260505022836 70 204 2.0 7.0 0.00 0.00 0.00 47 1007.6
20260505022329 70 218 1.0 6.0 0.00 0.00 0.00 47 1007.7
20260505021830 70 186 1.0 6.0 0.00 0.00 0.00 47 1007.6
20260505020829 70 269 3.0 9.0 0.00 0.00 0.00 46 1007.4
20260505020329 71 215 2.0 9.0 0.00 0.00 0.00 46 1007.5
20260505015829 71 198 3.0 10.0 0.00 0.00 0.00 45 1007.6
20260505015324 71 187 3.0 10.0 0.00 0.00 0.00 45 1007.5
20260505014825 71 219 2.0 9.0 0.00 0.00 0.00 44 1007.4
20260505014324 71 210 3.0 9.0 0.00 0.00 0.00 44 1007.4
20260505013824 71 201 3.0 9.0 0.00 0.00 0.00 44 1007.2
20260505012823 71 191 3.0 8.0 0.00 0.00 0.00 44 1007.2
20260505012325 71 268 2.0 5.0 0.00 0.00 0.00 44 1007.1
20260505011822 71 205 2.0 6.0 0.00 0.00 0.00 44 1007.0
20260505011322 71 212 1.0 7.0 0.00 0.00 0.00 44 1007.1
20260505010323 72 162 1.0 6.0 0.00 0.00 0.00 44 1007.0
20260505005823 72 203 0.0 3.0 0.00 0.00 0.00 44 1007.0
20260505005323 72 208 0.0 2.0 0.00 0.00 0.00 44 1006.9
20260505004823 72 204 1.0 5.0 0.00 0.00 0.00 44 1006.9
20260505004317 73 192 2.0 9.0 0.00 0.00 0.00 43 1006.8
20260505003817 73 225 3.0 9.0 0.00 0.00 0.00 43 1006.8
20260505003316 73 156 3.0 9.0 0.00 0.00 0.00 43 1006.8
20260505001317 74 226 3.0 8.0 0.00 0.00 0.00 41 1006.7
20260505000810 74 172 4.0 10.0 0.00 0.00 0.00 41 1006.7
20260504235809 74 216 3.0 11.0 0.00 0.00 0.00 41 1006.7
20260504234811 74 183 3.0 8.0 0.00 0.00 0.00 40 1006.6
20260504234312 74 197 3.0 8.0 0.00 0.00 0.00 40 1006.6
20260504233812 75 188 4.0 9.0 0.00 0.00 0.00 39 1006.6
20260504233306 75 212 5.0 10.0 0.00 0.00 0.00 39 1006.5
20260504232304 76 203 3.0 13.0 0.00 0.00 0.00 37 1006.5
20260504231803 76 158 3.0 9.0 0.00 0.00 0.00 36 1006.4
20260504231302 76 236 4.0 12.0 0.00 0.00 0.00 36 1006.4
20260504230802 76 139 6.0 14.0 0.00 0.00 0.00 36 1006.4
20260504230255 76 195 5.0 14.0 0.00 0.00 0.00 35 1006.4
20260504225756 76 206 5.0 14.0 0.00 0.00 0.00 35 1006.4
20260504224755 77 224 5.0 13.0 0.00 0.00 0.00 35 1006.5
20260504224254 77 211 5.0 13.0 0.00 0.00 0.00 35 1006.6
20260504223255 77 217 6.0 15.0 0.00 0.00 0.00 35 1006.5
20260504222749 77 217 7.0 15.0 0.00 0.00 0.00 35 1006.5
20260504222250 77 233 8.0 15.0 0.00 0.00 0.00 34 1006.4
20260504221749 77 210 8.0 15.0 0.00 0.00 0.00 34 1006.5
20260504221248 77 210 6.0 15.0 0.00 0.00 0.00 34 1006.5
20260504220749 77 191 7.0 15.0 0.00 0.00 0.00 33 1006.6
20260504215749 78 186 6.0 14.0 0.00 0.00 0.00 33 1006.6
20260504214743 78 226 7.0 18.0 0.00 0.00 0.00 33 1006.5
20260504214243 78 204 6.0 18.0 0.00 0.00 0.00 32 1006.5
20260504213741 78 249 6.0 18.0 0.00 0.00 0.00 32 1006.4
20260504212743 78 204 5.0 15.0 0.00 0.00 0.00 31 1006.5
20260504212243 78 167 5.0 13.0 0.00 0.00 0.00 31 1006.5
20260504211737 78 212 6.0 19.0 0.00 0.00 0.00 31 1006.5
20260504211236 78 197 6.0 18.0 0.00 0.00 0.00 31 1006.5
20260504210735 78 211 5.0 18.0 0.00 0.00 0.00 31 1006.4
20260504210236 78 257 7.0 16.0 0.00 0.00 0.00 31 1006.4
20260504205736 78 231 7.0 16.0 0.00 0.00 0.00 31 1006.5
20260504205238 78 225 6.0 15.0 0.00 0.00 0.00 31 1006.5
20260504204234 78 189 6.0 14.0 0.00 0.00 0.00 30 1006.4
20260504203232 78 204 5.0 15.0 0.00 0.00 0.00 30 1006.6
20260504202732 78 165 5.0 18.0 0.00 0.00 0.00 31 1006.7
20260504201234 78 225 6.0 19.0 0.00 0.00 0.00 31 1006.9
20260504200727 78 186 6.0 18.0 0.00 0.00 0.00 31 1007.0
20260504200226 78 235 7.0 16.0 0.00 0.00 0.00 31 1007.0
20260504195227 78 205 5.0 17.0 0.00 0.00 0.00 30 1007.0
20260504194725 78 203 5.0 16.0 0.00 0.00 0.00 30 1007.1
20260504194226 78 201 5.0 13.0 0.00 0.00 0.00 31 1007.2
20260504193726 78 200 6.0 14.0 0.00 0.00 0.00 31 1007.3
20260504193228 77 160 5.0 14.0 0.00 0.00 0.00 31 1007.3
20260504192725 77 252 5.0 14.0 0.00 0.00 0.00 32 1007.4
20260504192226 77 195 5.0 14.0 0.00 0.00 0.00 31 1007.7
20260504191725 77 177 6.0 15.0 0.00 0.00 0.00 32 1007.8
20260504191224 77 203 7.0 15.0 0.00 0.00 0.00 32 1007.9
20260504190723 77 173 5.0 13.0 0.00 0.00 0.00 31 1008.0
20260504190224 77 173 4.0 13.0 0.00 0.00 0.00 31 1008.1
20260504185725 77 136 4.0 13.0 0.00 0.00 0.00 31 1008.2
20260504185225 77 148 5.0 13.0 0.00 0.00 0.00 31 1008.3
20260504184717 76 198 6.0 15.0 0.00 0.00 0.00 32 1008.3
20260504184219 76 212 6.0 15.0 0.00 0.00 0.00 32 1008.4
20260504183718 76 163 4.0 14.0 0.00 0.00 0.00 33 1008.4
20260504183219 76 195 4.0 12.0 0.00 0.00 0.00 33 1008.5
20260504182719 76 210 6.0 13.0 0.00 0.00 0.00 33 1008.7
20260504182218 76 205 6.0 15.0 0.00 0.00 0.00 33 1008.7
20260504181719 75 214 6.0 15.0 0.00 0.00 0.00 33 1008.7
20260504181219 76 143 5.0 12.0 0.00 0.00 0.00 33 1008.9